User: anonymous   Login
Location: Melbourne
(37.8170°S, 144.9670°E)
Time: 11:37:28
(UTC+11:00)
Language:

Cosmos 962 Rocket - Orbit

View from above orbital plane
View from above orbital plane
View from above satellite
View from above satellite

Ground track
Ground track

The orbit data is extracted from the following two-line orbital elements,

1 10461U 77107B   16039.93264492 +.00000018 +00000-0 +21807-5 0  9994
2 10461 082.9485 020.3165 0034786 091.2611 323.7157 13.76748412922481
Epoch (UTC): 08 February 2016 22:23:00
Eccentricity: 0.0034786
inclination: 82.9485°
perigee height: 950 km
apogee height: 1001 km
right ascension of ascending node: 20.3165°
argument of perigee: 91.2611°
revolutions per day: 13.76748412
mean anomaly at epoch: 323.7157°
orbit number at epoch: 92248

The dashed part of the orbit path shows where the satellite is in the earth's shadow,  

DLR